Total_Precipitation_Accumulation
2.32 2.34 2.33 2.22 2.13 2.03 2.01 2.13 2.39 2.33 1.91 1.55 1.48 1.54 1.65 1.71 1.90 1.76 1.50 1.72 1.80 1.77 1.84 1.92 1.97 1.94 1.94 2.06 2.24 2.43 2.56 2.61 2.68 2.76 2.82 2.85 2.99 3.32
2.09 2.12 2.15 2.13 2.17 2.17 2.16 2.18 2.31 2.49 2.28 1.71 1.53 1.55 1.66 1.71 1.87 1.70 1.59 1.81 1.71 1.68 1.69 1.72 1.70 1.69 1.71 1.77 1.89 2.03 2.21 2.30 2.38 2.53 2.68 2.81 2.94 3.04
2.12 2.00 1.92 1.95 2.09 2.16 2.24 2.28 2.30 2.39 2.37 1.86 1.52 1.45 1.55 1.58 1.58 1.49 1.48 1.51 1.47 1.62 1.56 1.56 1.58 1.57 1.56 1.60 1.68 1.78 1.90 2.06 2.21 2.39 2.55 2.66 2.77 2.84
2.11 2.07 1.96 1.94 2.08 2.15 2.26 2.30 2.25 2.18 2.18 1.98 1.62 1.45 1.41 1.39 1.40 1.37 1.32 1.31 1.32 1.56 1.56 1.53 1.54 1.52 1.48 1.48 1.53 1.61 1.68 1.77 1.90 2.04 2.20 2.29 2.41 2.57
2.02 2.10 2.03 2.05 2.10 2.09 2.10 2.09 2.03 1.94 1.87 1.82 1.62 1.43 1.39 1.39 1.45 1.39 1.29 1.24 1.20 1.36 1.44 1.45 1.53 1.55 1.50 1.50 1.53 1.54 1.53 1.52 1.54 1.58 1.73 1.88 2.02 2.19
2.01 2.05 2.05 2.05 2.01 2.00 2.00 1.95 1.91 1.90 1.85 1.83 1.73 1.55 1.44 1.40 1.50 1.50 1.43 1.29 1.24 1.19 1.32 1.35 1.43 1.54 1.57 1.46 1.35 1.34 1.32 1.39 1.49 1.56 1.60 1.67 1.73 1.81
2.07 2.01 1.96 2.05 2.04 1.98 1.96 1.94 1.98 2.08 2.04 1.99 1.88 1.67 1.47 1.40 1.41 1.34 1.38 1.36 1.30 1.23 1.28 1.27 1.26 1.25 1.30 1.39 1.39 1.37 1.40 1.44 1.55 1.64 1.69 1.71 1.75 1.80
1.99 1.89 1.84 1.94 1.91 1.95 1.99 2.00 2.10 2.24 2.32 2.20 1.98 1.69 1.34 1.17 1.19 1.33 1.49 1.62 1.58 1.26 1.24 1.20 1.12 1.21 1.18 1.20 1.38 1.42 1.44 1.47 1.51 1.58 1.63 1.64 1.66 1.71
1.77 1.68 1.62 1.58 1.65 1.51 1.66 1.82 1.86 2.00 2.07 1.97 1.82 1.46 1.25 1.16 1.35 1.55 1.55 1.55 1.39 1.20 1.34 1.44 1.27 1.22 1.15 1.23 1.42 1.30 1.30 1.36 1.42 1.52 1.53 1.54 1.56 1.62
1.48 1.45 1.43 1.39 1.40 1.47 1.53 1.64 1.56 1.49 1.45 1.38 1.34 1.26 1.24 1.30 1.51 1.74 1.79 1.75 1.47 1.27 1.32 1.53 1.36 1.25 1.14 1.18 1.34 1.28 1.28 1.35 1.42 1.51 1.57 1.53 1.52 1.56
1.26 1.24 1.28 1.24 1.45 1.68 1.71 1.69 1.49 1.37 1.40 1.44 1.48 1.50 1.62 1.67 1.71 1.90 2.05 2.17 1.97 1.53 1.30 1.36 1.26 1.22 1.20 1.17 1.21 1.31 1.26 1.25 1.29 1.35 1.43 1.47 1.48 1.58
1.18 1.16 1.32 1.33 1.55 1.76 1.71 1.72 1.60 1.36 1.33 1.38 1.38 1.39 1.37 1.45 1.66 1.69 1.93 2.33 2.14 1.78 1.30 1.37 1.41 1.52 1.76 1.33 1.16 1.14 1.16 1.23 1.27 1.31 1.36 1.39 1.45 1.48
1.18 1.13 1.15 1.39 1.56 1.69 1.70 1.59 1.64 1.64 1.52 1.49 1.47 1.44 1.42 1.44 1.48 1.46 1.59 2.12 2.42 2.00 1.33 1.75 2.01 1.72 1.91 1.58 1.26 1.17 1.14 1.23 1.31 1.33 1.44 1.53 1.60 1.69
1.24 1.07 1.10 1.38 1.48 1.58 1.55 1.58 1.76 1.75 1.60 1.64 1.63 1.55 1.50 1.48 1.46 1.47 1.48 1.56 1.74 1.82 1.52 1.97 2.55 2.12 2.20 1.87 1.38 1.23 1.20 1.28 1.46 1.51 1.52 1.74 1.86 1.91
1.24 1.24 1.26 1.31 1.30 1.33 1.45 1.52 1.52 1.47 1.54 1.64 1.59 1.42 1.30 1.31 1.36 1.46 1.51 1.49 1.50 1.47 1.50 1.68 2.07 2.10 2.28 2.16 1.61 1.32 1.38 1.41 1.49 1.63 1.70 1.81 1.91 1.98
1.39 1.39 1.35 1.30 1.26 1.25 1.31 1.30 1.28 1.34 1.48 1.52 1.46 1.35 1.29 1.32 1.38 1.44 1.60 1.65 1.74 1.59 1.42 1.39 1.54 1.92 2.12 1.74 1.72 1.61 1.51 1.66 1.62 1.71 1.84 1.88 1.95 2.06
1.61 1.53 1.41 1.32 1.32 1.29 1.25 1.20 1.24 1.35 1.44 1.39 1.44 1.47 1.44 1.41 1.39 1.40 1.57 1.71 1.83 1.61 1.44 1.34 1.35 1.49 1.69 1.78 1.81 1.55 1.50 1.61 1.75 1.90 2.07 2.06 1.96 2.10
1.78 1.61 1.37 1.23 1.19 1.17 1.18 1.18 1.19 1.25 1.30 1.40 1.49 1.52 1.55 1.55 1.51 1.46 1.56 1.69 1.69 1.48 1.40 1.38 1.48 1.71 1.79 1.71 1.64 1.59 1.57 1.66 1.72 1.81 2.01 2.20 2.08 1.92
1.64 1.43 1.26 1.18 1.14 1.12 1.13 1.16 1.17 1.14 1.23 1.40 1.50 1.53 1.55 1.55 1.55 1.57 1.59 1.64 1.58 1.43 1.37 1.39 1.61 2.09 2.22 1.67 1.33 1.44 1.76 1.87 1.81 1.87 1.95 2.09 2.20 1.97
1.34 1.22 1.14 1.12 1.17 1.22 1.24 1.27 1.28 1.26 1.31 1.38 1.43 1.46 1.52 1.62 1.63 1.56 1.55 1.61 1.61 1.49 1.40 1.33 1.45 1.94 2.45 2.11 1.72 1.49 1.57 1.91 2.16 2.28 2.08 1.91 1.97 1.91
1.16 1.13 1.11 1.15 1.23 1.31 1.36 1.38 1.43 1.45 1.43 1.46 1.46 1.46 1.53 1.68 1.63 1.47 1.48 1.56 1.66 1.59 1.47 1.24 1.14 1.38 1.86 2.24 2.05 1.51 1.50 1.66 2.01 2.53 2.51 2.35 2.14 1.88
1.14 1.16 1.18 1.22 1.31 1.40 1.44 1.48 1.50 1.46 1.48 1.51 1.47 1.47 1.52 1.66 1.68 1.55 1.55 1.61 1.57 1.49 1.38 1.21 1.17 1.37 1.77 2.21 1.92 1.44 1.40 1.46 1.56 1.72 2.18 2.78 3.34 3.24
1.23 1.25 1.27 1.32 1.37 1.42 1.44 1.44 1.44 1.40 1.41 1.51 1.55 1.52 1.57 1.64 1.59 1.61 1.60 1.60 1.62 1.54 1.49 1.48 1.43 1.47 1.55 1.66 1.74 1.55 1.38 1.37 1.41 1.52 1.80 2.01 2.20 2.37